Wind_Speed
15 15 14 13 14 14 14 15 13 11 11 13 13 13 13 14 13 13 14 14 13 13 12 12 11 11 11 10 9 8 8 8 7 7 8 8 8 7 8 8 9 9 9 9
15 14 13 14 14 14 13 13 12 11 12 13 13 13 12 12 14 14 14 14 14 13 12 12 12 11 11 11 10 10 10 9 8 8 8 9 8 8 8 9 9 10 9 9
14 13 15 15 14 13 12 11 11 12 13 13 14 14 13 12 14 14 13 13 15 15 13 13 12 12 11 10 10 10 10 10 10 10 9 9 9 9 9 9 10 10 9 9
15 15 15 15 14 14 13 12 12 13 14 14 15 15 13 13 13 13 13 14 13 13 13 13 13 12 10 10 10 10 10 11 11 11 10 10 9 9 9 10 10 10 10 10
15 16 16 15 13 13 12 13 14 14 16 17 16 18 15 14 15 14 13 13 12 12 13 13 13 13 12 11 11 11 11 12 12 12 12 11 11 11 11 11 11 12 11 11
16 16 17 16 14 15 15 15 15 17 18 19 16 17 16 14 14 13 12 12 13 14 14 14 13 13 13 12 11 12 13 12 12 13 12 13 13 12 12 12 12 12 12 12
16 17 16 15 16 16 17 17 17 19 19 19 16 16 15 14 14 14 13 13 14 14 14 13 13 14 16 15 14 14 13 12 12 12 12 13 13 13 13 13 13 13 13 14
18 17 17 16 16 16 16 18 19 20 20 18 17 17 15 14 14 14 14 14 14 14 14 15 15 15 15 16 16 15 14 13 13 13 13 14 14 14 14 14 14 15 15 14
20 19 18 18 16 17 18 19 18 19 19 19 17 17 15 14 14 15 15 15 15 15 16 16 17 16 15 15 16 16 15 14 14 14 14 14 14 15 15 15 15 15 15 15
22 21 19 18 18 18 19 18 18 19 20 19 18 16 15 15 14 15 17 17 16 16 17 18 18 18 17 17 17 15 16 15 14 14 14 14 14 15 16 16 16 16 16 17
22 22 20 20 20 20 20 20 20 20 20 21 20 19 18 17 17 16 16 16 17 17 18 18 19 19 19 18 17 17 16 16 15 15 15 15 16 15 16 17 17 17 17 17
22 22 23 22 21 22 22 22 21 22 22 23 24 21 19 18 18 18 18 17 18 18 19 19 20 21 20 19 18 17 17 16 17 17 16 16 17 17 17 17 18 18 18 18
23 23 23 23 24 24 23 23 24 24 24 25 25 23 21 20 19 19 19 19 19 20 21 21 22 21 20 20 20 18 18 18 18 19 18 18 18 19 18 18 17 18 19 19
24 25 24 25 25 25 25 25 26 27 28 28 27 25 24 23 22 22 21 21 21 21 21 21 21 21 21 21 21 20 20 20 20 21 21 20 20 20 20 19 19 19 20 20
26 27 26 26 26 27 28 28 27 28 29 29 28 27 26 25 23 23 23 23 24 24 23 23 24 23 22 22 22 22 23 23 23 23 23 23 22 22 22 21 21 21 21 21
28 28 28 27 27 28 28 29 29 30 30 30 29 29 27 26 24 24 24 25 26 26 25 25 24 23 23 23 23 24 25 25 25 24 25 25 24 24 24 23 23 22 22 22
29 30 30 30 28 29 29 28 29 30 29 30 30 29 29 28 27 25 25 26 26 26 25 25 25 24 24 25 25 26 26 26 26 26 26 26 26 26 25 25 25 24 23 23
29 30 31 31 31 31 29 30 30 30 30 29 29 30 30 30 29 28 28 28 28 27 27 27 26 26 26 26 26 27 27 27 27 26 25 26 27 26 26 26 25 25 25 24
28 30 30 31 31 31 29 29 30 31 31 31 30 30 30 30 30 30 31 31 29 28 29 29 28 28 28 27 27 27 27 27 26 26 26 27 27 26 26 26 26 25 25 25
27 28 29 30 30 30 28 28 29 31 31 30 30 30 31 31 31 30 30 31 30 30 30 29 29 29 29 28 27 27 27 27 27 27 26 26 26 26 26 26 25 25 26 26
25 27 28 28 29 30 28 27 28 29 29 29 30 31 31 32 32 32 31 31 31 31 30 30 30 29 29 29 28 28 28 28 28 27 27 26 27 27 27 27 26 26 26 26
25 27 27 28 28 28 27 27 27 28 28 29 29 30 31 30 31 31 30 30 30 31 31 30 29 29 29 30 29 29 28 28 28 27 27 27 27 28 28 28 27 27 26 27
25 26 27 27 28 28 28 27 27 27 28 29 29 30 31 31 31 32 32 33 31 31 31 31 30 30 30 30 30 30 29 29 28 28 27 27 28 28 28 28 28 27 27 27
24 25 26 27 28 27 28 27 26 27 28 29 29 30 31 31 31 32 32 33 32 32 32 32 31 31 30 30 30 29 30 30 30 29 28 28 28 27 27 28 28 27 27 28
22 23 25 27 27 27 28 29 28 28 28 28 29 29 30 30 31 31 30 31 32 31 30 31 31 31 30 30 30 29 29 30 30 29 29 29 29 28 29 28 28 28 28 28
22 23 24 25 27 27 27 28 29 29 29 29 29 29 29 29 29 29 29 29 30 31 31 31 30 30 30 29 29 30 30 30 30 30 29 29 29 29 29 29 28 28 28 28
Wind_Direction
227 226 227 226 230 236 242 240 242 247 252 255 261 262 266 260 258 263 270 274 270 268 272 278 274 276 279 282 283 279 281 283 270 266 268 269 274 275 279 281 283 284 285 287
224 221 223 224 230 238 243 243 244 242 246 254 262 261 261 256 263 262 265 270 270 273 274 275 273 275 278 282 282 282 285 287 271 264 268 271 270 274 279 280 284 285 287 289
228 222 224 228 233 240 244 251 252 247 247 250 255 255 256 265 269 267 263 269 274 274 274 271 278 283 277 279 280 287 282 282 271 263 268 274 272 276 278 277 281 282 284 285
230 228 229 232 237 241 246 253 255 248 250 255 257 257 256 262 264 269 271 270 275 274 275 279 280 280 277 279 282 282 279 280 275 264 263 267 271 275 276 275 280 283 283 283
231 230 230 232 238 244 249 256 259 255 256 260 262 262 256 256 258 263 272 274 270 271 274 278 283 278 269 270 281 280 286 279 273 266 264 265 267 270 272 275 278 279 280 281
235 237 240 239 238 246 250 256 258 259 259 259 261 262 255 254 257 261 269 274 270 268 273 277 281 278 275 278 280 283 284 282 275 272 270 268 268 269 271 273 274 275 277 279
233 235 240 238 238 239 245 252 255 258 260 261 262 259 255 254 257 260 263 265 266 263 270 278 281 281 284 285 288 286 284 281 278 275 273 269 268 269 270 271 270 271 274 277
242 240 239 239 242 241 242 248 253 258 264 266 257 257 253 246 249 257 263 263 266 266 272 277 280 285 286 287 287 283 281 281 279 275 271 268 266 266 269 271 271 269 270 274
246 245 241 241 242 242 241 245 251 259 263 267 261 259 255 251 249 250 257 264 266 266 273 279 280 284 286 286 285 280 280 282 281 277 273 271 270 268 271 272 271 271 270 272
248 249 241 239 240 240 244 247 247 253 256 259 261 261 256 258 259 260 264 264 266 267 273 276 277 280 285 284 282 278 280 279 278 277 275 271 269 269 269 271 272 274 275 274
248 247 241 239 240 242 242 242 246 250 254 257 260 260 256 258 262 265 265 262 264 267 271 274 276 278 282 283 281 280 279 276 276 279 276 272 271 272 272 272 272 274 275 273
247 247 244 240 240 243 244 242 244 247 252 255 258 260 258 259 261 265 266 266 269 271 274 277 278 278 278 279 280 282 278 275 276 279 278 273 273 276 277 277 275 274 274 274
248 249 248 243 240 241 244 245 246 250 252 252 256 259 259 263 263 261 262 264 265 269 273 275 277 275 274 274 277 279 278 275 274 275 275 276 276 277 277 277 276 275 275 276
248 250 250 248 245 244 244 245 247 250 250 251 253 256 257 261 263 260 262 264 265 265 269 269 273 275 273 274 278 277 275 275 273 273 274 275 276 276 275 276 277 276 277 278
250 251 252 252 249 247 247 246 247 251 254 254 253 252 254 259 258 259 262 265 268 267 268 270 272 273 273 276 278 276 274 273 272 272 273 274 275 275 274 274 275 276 276 277
249 249 251 251 251 251 251 249 249 251 255 255 253 252 254 256 258 261 264 266 268 268 272 271 272 273 275 276 276 273 272 272 272 274 274 274 273 272 272 272 273 274 274 275
251 250 251 251 250 251 252 252 254 253 254 255 254 253 255 258 259 260 261 265 268 269 271 274 274 276 276 275 273 273 273 274 273 272 273 273 271 269 270 271 271 271 272 271
249 250 253 254 252 252 252 252 253 253 255 256 256 256 256 259 259 259 262 266 268 266 267 272 273 275 276 276 275 273 275 276 275 273 273 271 270 270 269 269 269 270 269 270
251 249 251 253 254 254 254 253 253 254 255 255 257 257 256 256 260 260 262 265 268 268 268 269 271 272 273 275 276 279 279 277 277 276 272 270 270 270 268 268 267 268 268 269
253 251 252 254 256 257 256 256 256 256 257 256 256 256 257 257 258 260 262 264 266 269 270 270 271 271 270 273 276 277 278 278 277 274 271 269 268 267 267 267 267 267 267 268
255 255 255 256 257 258 258 256 256 257 258 258 257 257 258 259 260 262 264 265 266 269 270 271 270 270 269 273 275 276 276 276 275 273 271 269 268 267 266 266 267 267 267 268
259 258 256 257 259 258 258 258 257 259 260 261 260 260 260 261 263 264 264 265 267 268 270 272 270 271 273 275 276 276 275 275 273 271 270 268 269 268 267 266 266 266 267 268
258 258 257 258 258 258 257 260 261 262 262 261 261 261 261 263 264 265 265 266 267 268 270 270 271 272 273 274 275 275 274 273 272 270 268 267 266 268 267 267 266 266 267 268
258 258 256 256 257 258 261 264 266 264 263 261 262 263 264 264 264 264 266 268 267 269 269 270 271 272 272 272 272 273 272 272 272 270 269 268 268 269 269 267 266 267 267 267
260 259 257 257 257 260 262 264 266 266 265 264 263 262 263 264 264 265 268 268 267 266 267 269 271 272 272 271 271 271 270 270 270 269 269 270 268 267 267 267 268 268 266 266
257 256 256 258 260 261 263 264 268 268 268 266 265 266 265 264 264 267 269 268 267 268 268 270 271 271 272 274 274 274 274 271 270 268 268 267 266 266 266 266 267 268 268 267
Height
5861 5863 5864 5866 5867 5868 5868 5869 5870 5871 5872 5872 5872 5872 5873 5873 5873 5873 5873 5874 5873 5873 5873 5873 5873 5873 5873 5872 5872 5872 5872 5871 5871 5871 5871 5870 5870 5870 5870 5869 5868 5868 5868 5867
5858 5860 5862 5863 5864 5864 5865 5865 5866 5868 5869 5869 5868 5868 5869 5869 5870 5870 5870 5871 5870 5871 5871 5870 5870 5870 5870 5870 5869 5869 5868 5868 5868 5868 5868 5868 5868 5867 5867 5866 5866 5865 5865 5865
5855 5859 5859 5859 5860 5861 5861 5862 5864 5865 5865 5865 5865 5865 5866 5866 5866 5866 5867 5867 5867 5868 5868 5868 5867 5867 5867 5867 5867 5866 5866 5865 5865 5866 5866 5865 5865 5865 5864 5864 5864 5863 5862 5862
5851 5854 5855 5855 5856 5857 5858 5860 5861 5861 5861 5861 5862 5861 5862 5862 5862 5862 5863 5864 5864 5864 5865 5865 5865 5864 5864 5864 5864 5864 5863 5863 5862 5862 5863 5863 5862 5862 5861 5861 5861 5860 5859 5859
5847 5849 5850 5851 5853 5854 5856 5857 5857 5857 5857 5858 5858 5857 5859 5859 5859 5859 5859 5860 5861 5862 5862 5862 5861 5861 5860 5861 5861 5860 5860 5859 5859 5859 5859 5859 5859 5858 5858 5858 5857 5857 5856 5856
5844 5845 5846 5848 5850 5850 5851 5852 5853 5853 5853 5853 5854 5854 5854 5855 5855 5856 5856 5857 5858 5858 5858 5858 5858 5857 5857 5857 5857 5856 5856 5856 5855 5855 5855 5855 5855 5855 5855 5854 5854 5854 5853 5852
5838 5841 5842 5843 5844 5846 5847 5848 5848 5848 5847 5848 5850 5849 5850 5851 5851 5851 5853 5853 5854 5854 5855 5855 5855 5855 5854 5854 5854 5853 5853 5853 5852 5852 5852 5852 5851 5851 5851 5851 5850 5850 5850 5849
5833 5836 5837 5838 5840 5841 5842 5843 5844 5844 5844 5844 5844 5844 5846 5847 5847 5847 5848 5849 5850 5850 5851 5850 5851 5851 5851 5851 5851 5850 5849 5849 5849 5848 5848 5848 5847 5847 5847 5847 5847 5846 5846 5845
5828 5831 5833 5834 5836 5837 5838 5838 5840 5840 5839 5839 5839 5840 5842 5842 5842 5843 5844 5845 5845 5846 5846 5846 5846 5847 5847 5846 5846 5846 5845 5845 5844 5844 5844 5844 5843 5843 5843 5843 5842 5842 5841 5841
5822 5825 5828 5829 5831 5832 5833 5834 5834 5834 5834 5834 5835 5835 5837 5837 5838 5839 5840 5841 5841 5842 5842 5842 5842 5842 5842 5842 5841 5841 5841 5840 5840 5840 5840 5839 5839 5839 5838 5838 5838 5837 5837 5836
5816 5819 5822 5824 5825 5827 5828 5828 5828 5829 5829 5830 5830 5833 5832 5833 5834 5834 5834 5835 5836 5837 5838 5837 5837 5837 5837 5837 5836 5836 5836 5835 5836 5835 5835 5835 5834 5834 5833 5833 5832 5832 5831 5831
5810 5812 5814 5817 5820 5821 5822 5822 5823 5824 5824 5825 5825 5829 5827 5827 5828 5828 5829 5830 5830 5831 5832 5832 5832 5832 5832 5832 5831 5831 5830 5830 5830 5830 5830 5830 5829 5829 5828 5828 5827 5827 5826 5825
5804 5806 5808 5811 5814 5815 5815 5816 5817 5818 5819 5819 5819 5823 5821 5821 5822 5823 5824 5824 5825 5826 5826 5826 5826 5826 5826 5826 5825 5825 5824 5824 5825 5825 5825 5824 5824 5824 5823 5822 5822 5821 5820 5819
5798 5799 5802 5804 5806 5807 5808 5810 5811 5811 5812 5812 5813 5815 5815 5815 5816 5817 5818 5819 5819 5820 5820 5820 5820 5820 5819 5820 5819 5819 5819 5819 5819 5819 5818 5818 5818 5817 5817 5816 5816 5815 5814 5814
5791 5793 5794 5796 5799 5800 5801 5803 5804 5804 5805 5806 5807 5808 5809 5809 5810 5811 5812 5813 5813 5813 5813 5813 5813 5813 5813 5813 5813 5813 5813 5812 5812 5812 5812 5812 5811 5810 5810 5809 5809 5809 5808 5807
5783 5785 5787 5789 5791 5792 5794 5795 5796 5797 5798 5798 5800 5802 5802 5802 5804 5804 5805 5805 5806 5806 5806 5806 5805 5806 5806 5806 5806 5805 5805 5805 5805 5805 5805 5804 5803 5803 5803 5802 5802 5802 5801 5801
5776 5777 5779 5781 5784 5784 5786 5788 5788 5789 5790 5791 5792 5795 5795 5796 5797 5798 5798 5799 5799 5799 5799 5799 5799 5798 5798 5799 5798 5798 5798 5797 5797 5797 5796 5796 5795 5795 5795 5795 5795 5794 5794 5794
5768 5769 5771 5773 5776 5776 5780 5779 5780 5781 5783 5784 5785 5787 5788 5789 5790 5790 5791 5792 5792 5791 5791 5792 5791 5791 5791 5791 5790 5789 5789 5789 5788 5788 5788 5788 5787 5787 5787 5787 5787 5787 5786 5786
5760 5761 5762 5764 5766 5767 5770 5771 5772 5773 5773 5776 5778 5779 5780 5780 5781 5782 5783 5783 5783 5783 5784 5784 5784 5784 5783 5783 5782 5781 5781 5781 5781 5780 5780 5780 5779 5779 5779 5779 5779 5779 5778 5778
5752 5753 5755 5756 5757 5759 5763 5764 5763 5764 5765 5768 5769 5771 5771 5772 5773 5774 5775 5775 5775 5776 5776 5775 5775 5775 5775 5775 5774 5774 5773 5773 5772 5772 5771 5771 5771 5771 5771 5771 5771 5770 5770 5770
5745 5745 5747 5748 5748 5750 5753 5754 5755 5757 5758 5759 5760 5762 5763 5764 5764 5765 5765 5766 5766 5766 5766 5766 5766 5766 5766 5766 5765 5765 5765 5764 5764 5763 5763 5762 5762 5762 5762 5762 5762 5762 5762 5762
5737 5738 5740 5741 5741 5745 5745 5746 5747 5748 5749 5750 5752 5753 5754 5755 5756 5756 5756 5756 5756 5756 5756 5756 5756 5757 5757 5757 5756 5756 5756 5755 5755 5755 5754 5754 5753 5753 5753 5753 5753 5753 5753 5753
5730 5731 5732 5734 5736 5736 5737 5737 5738 5740 5740 5741 5742 5744 5745 5745 5746 5746 5747 5747 5747 5747 5748 5748 5748 5749 5748 5748 5748 5747 5747 5746 5746 5746 5745 5745 5745 5745 5745 5745 5744 5744 5744 5744
5722 5723 5725 5725 5727 5728 5729 5730 5730 5731 5732 5733 5733 5734 5735 5736 5736 5737 5738 5738 5738 5738 5739 5738 5739 5739 5739 5738 5738 5738 5737 5737 5737 5736 5736 5736 5736 5736 5735 5735 5735 5735 5735 5735
5715 5716 5717 5718 5719 5720 5721 5722 5722 5723 5724 5724 5725 5726 5726 5727 5727 5728 5728 5728 5728 5729 5729 5730 5729 5730 5729 5728 5728 5728 5727 5727 5727 5727 5727 5727 5726 5726 5726 5726 5726 5726 5726 5725
5708 5709 5710 5711 5712 5713 5714 5714 5715 5715 5716 5716 5716 5717 5717 5718 5718 5719 5719 5720 5720 5719 5719 5720 5720 5720 5720 5719 5719 5718 5718 5717 5717 5717 5717 5717 5717 5716 5716 5716 5716 5716 5715 5715